RH
89 90 88 95 90 90 81 87 89 89 83 79 79 78 85 95 98 98 99 98 94 91 87 83 83 71 82 81 56 41 45 79 85 82 86 85 76 63 52 47 52 78 76
88 92 91 99 85 86 85 90 91 90 88 85 76 78 88 90 95 94 93 95 92 93 93 96 96 91 82 84 86 54 40 48 83 90 88 78 70 68 59 52 40 38 64
92 95 99 98 89 86 86 92 89 89 88 89 84 78 78 82 85 88 80 86 96 96 99 84 81 79 80 88 96 76 48 48 46 49 61 64 56 41 40 49 42 44 47
94 98 100 97 99 88 81 89 93 94 90 86 85 80 78 79 80 82 83 79 79 83 87 83 78 85 79 80 87 86 60 58 68 68 69 62 66 54 35 45 46 37 39
100 100 100 98 98 98 87 90 89 88 92 88 83 79 78 79 82 80 76 76 74 76 78 80 80 87 94 89 91 89 77 59 70 74 71 74 77 76 52 46 54 41 30
100 100 98 96 98 99 96 93 87 81 87 82 80 77 74 74 76 77 81 82 76 77 74 76 79 83 95 98 96 89 82 72 58 71 69 74 83 81 80 72 56 60 38
99 98 100 98 98 99 98 91 82 82 86 69 61 54 51 52 53 58 65 73 78 78 79 78 75 70 82 88 90 92 89 80 70 63 63 69 85 82 72 67 66 65 64
99 99 100 97 99 99 100 89 84 83 73 59 51 47 41 37 34 33 36 45 55 62 72 79 77 78 82 79 82 85 92 89 79 66 65 75 72 85 87 85 77 65 74
99 99 99 98 100 100 100 91 86 76 55 46 36 37 36 36 31 24 24 23 24 28 38 52 64 72 77 81 85 88 84 85 84 78 68 75 69 78 81 82 87 81 68
99 98 100 100 100 99 99 92 70 50 31 23 26 21 19 17 17 17 13 13 14 15 17 20 26 39 52 64 76 85 94 93 88 86 78 72 75 76 80 83 85 82 74
100 100 100 97 96 98 92 69 39 26 17 14 12 10 13 11 8 7 7 7 6 6 6 8 11 15 20 28 42 62 80 93 98 92 87 78 73 77 80 79 85 84 82
89 90 86 81 74 65 54 36 18 15 13 13 12 10 9 7 6 5 4 4 3 3 3 3 3 5 7 10 15 22 42 68 90 99 98 90 82 82 88 94 94 90 89
71 76 73 70 62 48 37 25 16 14 12 11 10 9 7 6 6 5 4 4 3 3 3 2 2 2 2 3 5 10 17 30 54 79 93 95 96 90 89 100 99 99 96
54 60 62 60 53 42 32 23 17 14 13 11 10 9 7 7 6 5 4 4 4 3 3 2 2 2 2 2 2 3 6 11 19 35 56 78 94 100 100 96 98 100 100
46 47 48 48 45 35 26 21 17 15 12 11 10 9 8 7 6 6 5 4 4 4 3 3 3 3 2 2 2 2 2 3 5 9 15 29 53 80 98 99 98 100 100
44 43 40 38 33 27 23 20 17 14 13 12 11 10 9 8 7 6 5 5 4 4 4 4 3 3 3 3 3 3 2 2 2 3 4 6 10 23 46 83 98 96 100
42 44 40 35 29 26 23 20 17 15 14 13 12 11 10 8 7 6 6 5 5 4 4 4 4 4 4 4 3 3 3 3 3 3 3 3 4 4 8 22 54 89 96
40 44 42 36 30 26 23 20 17 16 15 14 13 11 10 9 8 7 6 5 5 5 5 5 5 4 4 4 4 4 4 4 4 4 5 6 7 7 6 4 5 15 53
40 42 42 36 29 26 23 20 18 17 16 15 13 12 11 9 8 7 6 6 5 5 5 5 5 6 6 5 5 5 5 6 8 8 8 9 10 10 10 10 8 6 5
41 43 43 35 29 26 22 20 18 17 16 16 14 13 12 11 9 8 8 7 7 7 6 6 6 6 6 6 6 7 8 10 11 13 13 13 13 13 12 12 11 11 10
44 44 41 34 29 25 22 20 19 18 17 16 15 14 13 12 11 10 9 9 9 9 9 8 7 7 8 8 8 9 12 14 14 14 12 14 14 13 12 11 10 9 9
46 45 42 35 30 26 22 20 19 19 19 18 17 16 14 14 13 12 11 12 13 13 13 12 11 10 10 9 9 10 15 20 22 23 22 17 14 12 11 10 9 8 7
50 46 42 36 31 26 24 21 22 21 20 18 18 17 16 15 14 14 15 16 16 16 16 16 16 15 15 16 15 14 19 28 18 19 20 20 18 15 13 12 12 10 9
53 48 42 38 32 27 24 21 20 20 19 18 18 18 18 17 16 16 17 17 18 19 19 20 20 20 20 22 22 22 22 21 20 24 19 20 19 17 15 14 13 12 12
58 50 45 40 34 28 25 22 21 20 19 19 18 18 18 18 18 18 19 19 20 20 20 22 24 26 27 28 29 31 32 32 29 27 28 18 17 17 16 16 16 15 14
60 54 46 42 35 29 26 24 22 20 20 19 19 18 18 18 18 18 19 20 21 22 22 24 25 26 27 29 30 33 37 41 44 45 43 35 27 17 18 17 18 18 17
Wind_Speed
28 25 22 17 19 19 19 16 12 9 7 9 10 11 12 13 13 13 16 17 17 14 11 10 11 9 11 10 11 13 14 14 13 14 14 13 14 14 13 14 13 12 12
30 25 21 18 21 21 22 17 12 8 6 7 7 8 8 9 12 11 12 15 15 16 16 17 17 13 10 8 8 10 12 13 12 12 11 10 10 11 11 11 11 10 9
32 27 23 19 22 22 19 16 13 11 8 9 9 9 9 8 8 8 8 7 8 11 12 13 10 11 13 13 9 9 10 12 12 10 9 9 9 9 9 9 9 10 10
32 30 25 20 20 20 20 18 17 13 13 11 10 11 12 11 10 9 9 8 7 7 6 6 8 8 9 10 11 10 9 10 11 10 8 8 9 9 9 9 9 8 8
32 31 25 20 16 16 20 17 16 11 12 12 12 11 11 11 10 11 10 10 10 10 9 8 8 8 9 9 7 9 8 7 9 9 8 9 10 11 12 10 9 8 7
31 30 27 18 17 16 17 14 13 11 13 14 11 10 9 10 10 9 10 10 9 11 10 8 8 8 7 9 8 7 9 9 7 8 8 9 8 9 11 10 8 8 8
30 28 24 22 19 17 18 16 13 13 15 12 10 9 8 8 8 8 8 8 10 10 10 10 10 8 7 6 6 8 10 10 9 8 8 9 8 8 8 7 7 6 7
30 29 25 21 17 16 16 16 17 18 14 12 10 9 7 8 8 8 9 8 9 9 10 9 8 10 7 5 6 7 9 10 9 9 9 11 8 10 9 7 6 6 6
30 28 26 23 18 16 15 19 21 18 15 11 10 10 10 10 10 9 11 11 11 11 12 11 11 11 9 8 9 10 11 11 10 11 12 12 11 8 10 9 7 6 6
31 29 28 25 24 24 21 19 17 14 13 11 10 9 9 9 10 11 10 11 12 13 14 14 14 14 12 10 9 10 12 13 14 13 13 14 13 13 10 10 8 7 6
33 31 29 26 25 23 20 18 17 14 11 10 8 8 8 8 7 8 8 9 9 10 12 13 14 15 14 13 11 11 12 14 16 16 15 14 15 14 12 10 10 8 5
37 34 31 28 25 21 18 14 13 11 11 9 8 8 7 7 6 6 6 7 8 10 11 11 12 14 15 14 12 14 14 15 15 17 18 16 16 16 14 13 12 12 9
37 35 34 30 26 22 20 17 14 12 11 9 8 7 7 6 5 5 5 6 7 8 7 9 10 11 11 12 13 14 14 16 16 16 17 17 18 16 16 15 15 11 11
38 36 34 32 28 26 22 18 15 13 12 10 9 8 6 5 5 4 4 4 5 6 7 7 7 8 9 10 11 12 13 15 15 15 15 17 18 17 18 17 17 16 14
38 37 35 33 31 27 23 20 17 15 13 11 9 8 6 5 5 5 5 5 4 4 5 6 7 7 8 9 10 10 11 12 14 14 14 16 19 20 19 19 18 16 15
38 37 36 33 30 27 24 21 18 16 14 11 10 8 6 5 5 5 5 5 6 5 5 4 4 6 7 7 7 8 9 10 11 12 13 14 16 17 21 22 22 21 18
38 37 36 33 30 27 24 21 19 16 14 11 9 7 5 5 4 4 5 5 5 5 4 4 5 4 4 5 6 7 7 8 9 10 11 12 13 17 21 24 25 24 26
38 38 35 34 31 28 25 22 19 16 14 12 10 8 7 6 5 5 5 5 6 5 5 4 3 4 5 4 4 4 5 6 7 8 9 10 11 13 14 16 20 25 27
39 39 37 34 32 29 26 23 20 18 15 13 11 9 8 7 5 4 4 4 5 5 5 5 4 3 2 3 4 4 3 4 6 8 9 8 9 9 10 12 14 17 21
38 39 38 35 33 30 28 25 22 19 17 14 12 9 7 5 4 3 3 3 3 3 3 3 3 3 3 2 2 2 3 4 4 5 6 7 7 7 8 9 10 12 14
38 41 39 37 35 33 31 28 25 21 18 14 11 8 6 4 3 2 2 2 2 2 2 2 1 1 2 2 2 3 3 6 7 7 7 6 5 5 6 7 9 9 10
39 42 40 38 35 32 29 26 23 21 17 12 10 9 7 5 3 3 3 2 2 3 3 4 4 4 3 2 1 3 3 5 6 8 8 7 6 5 6 7 7 9 9
41 44 43 39 35 31 27 25 23 20 17 15 13 10 8 5 4 3 2 2 2 2 3 4 4 4 5 4 3 2 1 3 2 6 9 9 7 6 7 7 8 9 8
39 42 42 38 34 30 29 27 23 20 19 16 12 11 8 6 4 4 3 3 3 3 4 4 5 4 4 3 2 1 2 4 3 3 6 6 6 8 9 9 9 9 9
36 41 40 37 33 31 28 25 22 19 16 15 14 11 8 6 5 4 4 4 4 4 5 5 5 5 5 5 4 4 3 4 5 5 8 9 10 9 8 8 8 8 9
32 36 39 36 33 31 28 25 22 20 18 16 14 11 9 7 6 6 6 6 6 6 6 6 6 7 7 8 8 7 6 5 6 6 8 13 14 12 8 7 7 7 8
Wind_Direction
178 178 184 177 183 175 175 179 181 174 139 128 142 146 146 134 133 135 118 122 116 116 120 123 117 121 102 96 101 105 111 117 117 115 111 106 102 97 97 100 102 97 103
179 179 177 181 188 189 186 194 205 214 190 179 182 167 160 152 154 152 147 144 137 134 126 120 127 138 129 113 112 118 117 121 122 123 119 110 102 104 97 90 99 108 108
180 181 174 190 192 197 193 194 203 215 220 216 196 196 194 186 170 162 158 155 151 154 162 160 143 137 144 139 142 132 126 124 123 127 121 112 103 103 103 94 92 102 122
181 183 179 187 196 202 203 199 200 221 229 222 207 198 199 202 206 207 199 200 196 192 198 187 180 184 169 168 154 142 135 134 130 122 114 115 105 99 97 100 95 97 107
184 187 185 185 172 186 203 196 201 199 209 207 188 181 185 193 202 218 224 225 220 223 215 214 207 200 184 193 165 145 146 151 142 132 116 121 118 107 100 97 92 90 97
184 187 191 178 171 156 197 196 206 221 218 204 192 190 194 194 196 214 219 231 230 232 236 231 227 221 198 168 171 164 172 166 166 151 133 130 128 118 105 97 97 90 83
178 181 177 183 173 174 206 202 210 222 221 205 205 201 200 217 222 224 229 227 235 241 234 235 238 242 236 205 196 181 182 174 172 170 164 157 122 137 113 103 106 106 95
180 179 173 182 175 195 186 202 219 218 208 198 202 212 227 232 235 244 250 239 241 244 254 252 245 242 240 223 209 191 184 177 180 193 188 186 159 139 142 141 137 127 129
182 183 180 172 160 164 181 208 212 209 197 203 206 209 214 234 249 237 242 254 256 254 254 252 253 252 244 218 208 200 196 188 193 203 198 199 193 169 171 150 148 151 155
183 185 191 194 182 185 195 200 197 196 192 192 207 205 205 214 223 244 246 246 251 255 255 257 254 254 251 245 216 206 203 203 202 200 204 207 201 198 194 184 170 161 163
192 195 196 196 196 200 200 195 197 199 195 191 194 193 216 228 216 218 231 241 248 249 253 252 254 251 254 253 245 225 213 213 212 210 208 214 215 211 209 205 197 195 185
195 195 197 200 202 202 204 198 197 198 202 204 207 211 214 213 219 230 244 248 246 248 256 256 252 250 246 245 240 235 225 220 218 217 220 214 217 221 218 211 212 206 207
199 200 199 202 204 206 206 202 201 202 202 204 205 209 213 219 225 224 226 240 255 265 250 239 245 245 245 238 234 232 228 225 221 221 223 227 226 222 224 222 219 211 225
201 203 202 203 206 205 206 207 207 205 204 206 209 213 221 236 247 254 254 253 249 245 253 259 252 246 238 238 235 230 229 229 230 229 228 224 225 231 234 234 233 231 228
204 203 204 205 206 208 208 209 207 206 206 208 211 218 223 233 250 272 286 287 276 258 247 248 247 247 246 237 234 232 230 230 231 235 235 234 230 223 226 229 233 237 239
207 205 205 206 207 207 207 206 205 203 203 202 204 209 215 227 238 243 254 264 274 282 283 271 257 249 251 255 249 239 236 233 232 233 236 238 236 232 230 227 226 226 218
208 206 206 205 204 204 203 203 202 202 200 201 204 209 222 237 253 263 273 284 283 279 278 282 285 280 270 259 254 247 246 239 229 228 230 230 231 235 239 237 234 231 233
210 205 204 203 202 201 202 202 201 199 198 199 200 203 213 225 239 257 273 282 291 297 306 311 296 282 284 285 268 252 236 227 227 226 224 223 225 230 235 239 240 238 236
210 206 204 202 201 198 196 197 196 197 198 200 201 203 205 207 211 227 246 269 284 297 301 305 310 310 312 290 285 285 261 230 215 213 217 223 229 233 238 241 239 239 239
209 206 206 201 199 198 196 196 196 197 197 198 198 197 197 201 207 225 241 244 254 263 273 281 299 312 326 319 294 249 223 219 218 216 213 212 220 230 237 242 248 249 245
207 204 203 200 197 198 195 194 195 197 196 196 195 196 198 209 232 256 268 276 283 302 311 312 323 345 355 347 316 283 227 214 217 224 230 236 242 256 261 257 252 253 254
205 203 201 201 200 198 200 200 200 195 190 193 193 194 198 210 234 264 288 310 325 338 349 358 357 6 15 42 210 246 227 243 238 230 231 226 240 265 284 283 273 265 260
203 201 200 199 199 199 197 196 191 190 193 195 196 200 202 212 226 241 261 278 301 327 337 346 353 6 9 17 39 157 202 216 253 243 243 242 251 284 298 292 295 289 277
204 201 200 198 197 197 198 199 203 207 202 199 198 199 207 212 226 240 255 272 290 306 321 332 339 351 2 359 3 355 227 238 234 236 232 232 255 291 302 301 299 294 287
206 201 198 197 195 197 199 201 202 201 201 200 199 203 213 223 232 248 261 274 284 297 309 318 325 333 335 331 328 319 302 284 268 251 278 263 271 282 291 298 290 284 285
203 202 197 196 197 198 199 198 202 204 204 202 201 204 214 227 240 250 262 273 284 292 298 304 308 312 314 312 310 306 300 293 286 286 293 301 303 291 296 285 283 279 278